TimeCDT,TemperatureF,Dew PointF,Humidity,Sea Level PressureIn,VisibilityMPH,Wind Direction,Wind SpeedMPH,Gust SpeedMPH,PrecipitationIn,Events,Conditions,WindDirDegrees,DateUTC
12:53 AM,72.0,54.0,53,29.78,10.0,South,17.3,26.5,N/A,,Clear,190,2013-05-15 05:53:00
1:53 AM,72.0,54.0,53,29.78,10.0,South,17.3,24.2,N/A,,Clear,190,2013-05-15 06:53:00
2:53 AM,71.1,54.0,55,29.77,10.0,South,16.1,-,N/A,,Clear,190,2013-05-15 07:53:00
3:53 AM,69.1,55.0,61,29.77,10.0,South,12.7,-,N/A,,Clear,190,2013-05-15 08:53:00
4:53 AM,66.9,55.0,66,29.78,10.0,South,11.5,-,N/A,,Clear,180,2013-05-15 09:53:00
5:53 AM,64.0,55.0,73,29.78,10.0,South,9.2,-,N/A,,Clear,180,2013-05-15 10:53:00
6:53 AM,64.0,55.0,73,29.78,10.0,South,11.5,-,N/A,,Clear,180,2013-05-15 11:53:00
7:53 AM,66.9,55.0,66,29.80,10.0,South,13.8,21.9,N/A,,Clear,180,2013-05-15 12:53:00
8:53 AM,72.0,55.9,57,29.83,10.0,SSW,9.2,-,N/A,,Clear,210,2013-05-15 13:53:00
9:53 AM,75.9,57.0,52,29.82,10.0,SSW,10.4,-,N/A,,Clear,200,2013-05-15 14:53:00
10:53 AM,80.1,55.9,43,29.81,10.0,South,11.5,-,N/A,,Clear,190,2013-05-15 15:53:00
11:53 AM,82.0,59.0,45,29.80,10.0,South,12.7,18.4,N/A,,Clear,170,2013-05-15 16:53:00
12:53 PM,82.9,59.0,44,29.79,10.0,South,11.5,-,N/A,,Clear,180,2013-05-15 17:53:00
1:53 PM,84.9,60.1,43,29.78,10.0,SSE,18.4,24.2,N/A,,Clear,160,2013-05-15 18:53:00
2:53 PM,84.0,60.1,44,29.78,10.0,South,12.7,21.9,N/A,,Clear,180,2013-05-15 19:53:00
3:53 PM,84.9,57.9,40,29.77,10.0,South,12.7,-,N/A,,Clear,180,2013-05-15 20:53:00
4:53 PM,82.0,64.9,56,29.75,10.0,South,11.5,-,N/A,,Clear,170,2013-05-15 21:53:00
5:53 PM,79.0,64.0,60,29.77,10.0,South,9.2,-,N/A,,Clear,180,2013-05-15 22:53:00
6:53 PM,75.0,63.0,66,29.78,10.0,South,15.0,-,N/A,,Clear,170,2013-05-15 23:53:00
7:53 PM,73.0,61.0,66,29.78,10.0,South,6.9,-,N/A,,Clear,180,2013-05-16 00:53:00
8:53 PM,69.1,62.1,78,29.78,10.0,South,5.8,-,N/A,,Clear,180,2013-05-16 01:53:00
9:53 PM,66.0,60.1,81,29.81,10.0,SSE,9.2,-,N/A,,Clear,160,2013-05-16 02:53:00
10:53 PM,64.9,59.0,81,29.83,10.0,SSE,8.1,-,N/A,,Clear,150,2013-05-16 03:53:00
11:53 PM,61.0,57.0,87,29.83,10.0,South,4.6,-,N/A,,Clear,180,2013-05-16 04:53:00